Retour au catalogue

TRANSIT 10 DEB

ActifPO
NORAD 24705·DEBRIS·🇺🇸 United States

Lancé Dec 22, 1965 depuis Vandenberg Space Force Base

Loading…

Prochains Passages (prochaines 24 heures)

TLE

FraisSource: Space-Track

Époque: Sep 14, 2026, 06:40 UTC

1 24705U 65109E   26257.27839949  .00001894  00000-0  97651-3 0  9995
2 24705  89.0792 189.2699 0076421 140.4747  11.5658 14.13242310513428

Suivez TRANSIT 10 DEB en temps réel avec AllMySat

Download on the App Store